Location: eljas
(40.1958°N, 6.8661°W)
Time: 22:15:59
(UTC+02:00)

Daily predictions for brighter satellites

Satellite Brightness Start Highest point End
(mag) Time Altitude Azimuth Time Altitude Azimuth Time Altitude Azimuth
YAOGAN 11 4.1 22:25:05 10° SSE 22:29:23 89° W 22:33:46 10° NNW
Tiangong 1 3.1 22:29:45 10° SSE 22:31:00 12° SE 22:32:16 10° ESE
S3M 4.0 22:30:29 10° N 22:36:38 84° E 22:42:46 10° S
DELTA 2 R/B (1) 3.6 22:32:42 10° W 22:38:15 78° S 22:43:48 10° ESE
Cosmos 1777 Rocket 4.0 22:33:08 10° S 22:38:21 67° ESE 22:43:35 10° NNE
AVUM R/B 2.5 22:39:49 10° S 22:42:01 50° ESE 22:44:27 10° NE
H-2A R/B 2.2 22:37:55 10° SSE 22:42:24 68° ENE 22:46:55 10° N
Cosmos 1908 3.6 22:41:25 10° N 22:45:13 48° E 22:49:00 10° SSE
Cosmos 1328 Rocket 3.8 22:40:59 10° N 22:45:28 77° W 22:49:53 10° S
Cosmos 1833 4.3 22:41:01 10° S 22:46:38 62° ESE 22:52:14 10° NNE
PSLV R/B 4.2 22:45:01 10° SE 22:47:42 29° ENE 22:50:26 10° N
Cosmos 1437 3.7 22:46:30 10° SSE 22:49:24 29° E 22:52:18 10° NNE
Cosmos 2333 Rocket 4.4 22:47:41 10° NNE 22:49:55 12° NE 22:52:10 10° ENE
Meteor 2-2 Rocket 4.4 22:50:45 10° N 22:56:46 84° E 23:02:49 10° S
ATLAS CENTAUR R/B 3.7 22:53:43 10° WNW 22:57:01 21° WSW 23:00:07 10° SSW
Cosmos 1674 2.7 22:54:08 10° S 22:57:55 68° E 23:01:46 10° NNE
H-2A R/B 4.0 22:57:12 10° E 23:00:27 17° ENE 23:03:45 10° NNE
USA 229 DEB 3.9 22:54:57 10° SW 23:01:52 79° NW 23:08:55 10° NNE
USA 229 3.9 22:55:03 10° SW 23:01:59 80° NW 23:09:01 10° NNE
COSMOS 2428 3.7 22:57:22 10° N 23:02:29 34° ENE 23:06:57 13° ESE
Cosmos 1939 Rocket 3.0 22:59:28 10° S 23:03:24 73° WSW 23:07:19 10° NNW
Cosmos 1500 Rocket 4.2 23:02:12 10° SSW 23:06:29 58° W 23:10:51 10° N
Terra 3.9 23:04:06 10° E 23:06:30 14° ENE 23:08:54 10° NNE
Cosmos 883 Rocket 4.5 23:02:36 10° N 23:08:50 75° E 23:14:58 10° SSE
Cosmos 1680 Rocket 3.6 23:03:44 10° NNW 23:08:58 65° ENE 23:13:21 15° SSE
Cosmos 1300 3.9 23:06:16 10° NNE 23:09:35 27° ENE 23:11:43 17° ESE
DELTA 2 R/B(2) 3.2 23:10:07 10° WSW 23:11:44 51° SSE 23:13:19 16° E
SPOT 1/Viking Rocket 4.0 23:08:12 14° SE 23:12:15 45° ENE 23:17:09 10° N
CZ-4B R/B 3.9 23:07:55 10° NNE 23:13:01 47° E 23:17:59 10° S
Cosmos 923 Rocket 4.0 23:07:48 10° NNW 23:13:02 88° WSW 23:17:40 13° SSE
MetOp-A 4.2 23:08:49 12° SSE 23:13:42 69° ENE 23:19:02 10° N
Cosmos 405 3.1 23:10:25 10° NNW 23:14:03 78° W 23:17:18 12° S
Cosmos 1437 Rocket 3.4 23:11:04 10° NNW 23:14:46 52° W 23:18:31 10° S
Cosmos 2219 Rocket 3.8 23:11:19 10° N 23:15:38 22° NE 23:19:37 11° ESE
ARGOS 3.7 23:13:44 16° SE 23:17:45 43° ENE 23:22:51 10° N
OAO 2 Rocket 4.4 23:13:47 10° SSW 23:18:06 25° SSE 23:21:07 16° ESE
YAOGAN 6 2.8 23:17:23 19° SSE 23:19:50 56° ENE 23:23:23 10° N
NOSS 3-1 (A) 3.8 23:16:16 10° S 23:21:36 38° ESE 23:27:24 10° NE
Cosmos 1898 Rocket 4.2 23:18:33 15° SSE 23:22:09 33° E 23:26:46 10° NE
Delta 2 Rocket 3.5 23:18:53 10° WSW 23:22:09 36° S 23:23:37 24° SE
CZ-4 R/B 4.3 23:19:45 10° NNE 23:24:25 41° E 23:27:44 17° SSE
Cosmos 2266 Rocket 4.5 23:25:51 10° SSW 23:32:05 64° W 23:38:15 10° N
Cosmos 1455 4.4 23:30:37 10° NE 23:32:09 12° ENE 23:33:00 11° E
CZ-4 SHROUD 3.9 23:30:00 16° S 23:32:14 50° W 23:35:19 10° NNW
Cosmos 2315 Rocket 4.0 23:27:47 10° N 23:34:02 84° E 23:39:08 16° S
Cosmos 2219 3.2 23:30:31 10° SSW 23:36:16 85° ESE 23:42:03 10° NNE
Cosmos 1328 4.2 23:35:21 10° SSW 23:39:15 64° W 23:43:12 10° N
CZ-4C R/B 4.0 23:39:11 26° ESE 23:40:18 33° ENE 23:43:27 10° N
USA 245 2.0 23:39:48 46° SSE 23:40:27 81° ENE 23:42:50 10° N
Cosmos 2151 3.8 23:38:22 10° SSW 23:42:26 50° W 23:46:33 10° N
SL-08 RB Rocket 3.8 23:40:18 26° SE 23:42:42 59° ENE 23:47:07 10° N
ATLAS 2AS CENTAUR R/B 3.9 23:41:29 21° SE 23:44:14 26° ESE 23:50:27 10° NE
Cosmos 2237 Rocket 3.6 23:40:42 10° N 23:45:25 26° NE 23:48:43 16° E
Cosmos 2322 4.2 23:40:00 10° NNW 23:45:35 56° WSW 23:49:45 18° S
Sich 1 3.1 23:43:32 24° SSE 23:46:03 60° E 23:50:24 10° NNE
Meteor 1-27 4.2 23:41:33 10° N 23:47:16 80° E 23:50:52 23° SSE
Cosmos 2322 Rocket 4.5 23:44:19 10° WNW 23:47:51 17° W 23:51:22 10° SW
Cosmos 1633 Rocket 3.1 23:45:43 26° SSE 23:48:03 59° E 23:52:22 10° NNE
SPOT 5 3.9 23:46:13 12° SSW 23:50:09 39° W 23:54:38 10° NNW
